User: anonymous   Login
Location: Irma
(52.9170°N, 111.2330°W)
Time: 04:01:41
(UTC-07:00)
Language:

Cosmos 2279 Rocket - Orbit

View from above orbital plane
View from above orbital plane
View from above satellite
View from above satellite

Ground track
Ground track

The orbit data is extracted from the following two-line orbital elements,

1 23093U 94024B   15063.07867993  .00000022  00000-0  68346-5 0  9996
2 23093 082.9495 016.2908 0009892 179.9582 180.1579 13.77646727516307
Epoch (UTC): 04 March 2015 01:53:17
Eccentricity: 0.0009892
inclination: 82.9495°
perigee height: 965 km
apogee height: 979 km
right ascension of ascending node: 16.2908°
argument of perigee: 179.9582°
revolutions per day: 13.77646727
mean anomaly at epoch: 180.1579°
orbit number at epoch: 51630

The dashed part of the orbit path shows where the satellite is in the earth's shadow,  

DLR